"Pseudo-MPEC" for C1FRE35

Created 2026 Aug 26 0:35:04 UT using Find_Orb

Click here for an explanation of pseudo-MPECs

 
 Astrometry: 
     C1FRE35 0C2026 08 21.35474222 33 33.982-06 02 33.24   ~8OFo 21.63gUNEOCPI41
     C1FRE35 0C2026 08 22.31406522 40 06.666-12 17 08.49   ~8OFo 20.54rUNEOCPI41
     C1FRE35*1C2026 08 22.36237122 40 24.164-12 37 18.95   ~8OFo 20.89GVNEOCPV00
     C1FRE35 1C2026 08 22.36735422 40 26.051-12 39 22.54   ~8OFo 20.60GVNEOCPV00
     C1FRE35 1C2026 08 22.37231922 40 27.948-12 41 27.42   ~8OFo 20.92GVNEOCPV00
     C1FRE35 1C2026 08 22.37728322 40 29.863-12 43 32.74   ~8OFo 21.63GVNEOCPV00
     C1FRE35 0C2026 08 22.42671022 40 49.120-13 04 18.60   ~8OFo 20.8 RVNEOCP291
     C1FRE35 0C2026 08 22.43288022 40 51.600-13 06 54.50   ~8OFo 20.3 RVNEOCP291
     C1FRE35 1C2026 08 23.32057922 48 15.282-19 43 10.67   ~8OFox20.35GVNEOCPV00
     C1FRE35 1C2026 08 23.32699722 48 18.277-19 46 14.88   ~8OFo 20.36GVNEOCPV00
     C1FRE35 1C2026 08 23.33257322 48 20.833-19 48 49.46   ~8OFo 20.89GVNEOCPV00
     C1FRE35 1C2026 08 23.33815922 48 23.425-19 51 24.30   ~8OFox      VNEOCPV00
     C1FRE35 0C2026 08 23.39838822 48 52.825-20 19 49.39   ~8OFo 20.45rUNEOCPI41

Station data:
(291) LPL/Spacewatch II  (N31.961669 W111.599905)  US/Arizona.  Observers J.
   V. Scotti, R. S. McMillan. 1.8-m f/2.7 reflector + CCD.
(I41) Palomar Mountain--ZTF  (N33.357336 W116.859780)  US/California.
   Observers B. T. Bolin, Z. T. F. Collaboration. Measurers B. T. Bolin,
   Z.-Y. Lin, F. J. Masci. 1.2-m f/2.4 Schmidt.
(V00) Kitt Peak-Bok  (N31.963125 W111.600190)  US/Arizona. Measurers T.
   Beuden, V. F. Carvajal, D. Fay, J. B. Fazekas, D. C. Fuls, A. R. Gibbs, A.
   D. Grauer, H. Gröller, J. K. Hogan, R. A. Kowalski, S. M. Larson, G. J.
   Leonard, D. Rankin, R. L. Seaman, F. C. Shelly, K. W. Wierzchoś. 2.25-m
   reflector + 4x4K mosaic CCD.

Orbital elements:  C1FRE35
   Perihelion 2026 Nov 5.562746 +/- 0.25 TT = 13:30:21.2 (JD 2461350.062746)
Epoch 2026 Aug 23.0 TT = JDT 2461275.5   Earth MOID: 0.0444      AutoNEOCP
M 298.846954704 +/- 0.39            (J2000 ecliptic)
n   0.820155491 +/- 0.00254         Peri.  266.870714 +/- 0.25
a   1.130329991 +/- 0.00233         Node   148.823976 +/- 0.0026
e   0.21990501 +/- 0.00156          Incl.   20.979085 +/- 0.13
P   1.202/438.933d         H 26.81  G  0.15   U  8.7
q 0.881764760 +/- 9.04e-5    Q 1.378895222 +/- 0.0046
11 of 13 observations 2026 Aug. 21-23; mean residual 0".62
Residuals in arcseconds: 
260821 I41  1.0-  .22-    260822 V00  .32+  .04+    260823 V00  .49-  1.5+    
260822 I41  .68+  .15-    260822 291  .08-  .38+    260823 V00( .68-  3.8+)   
260822 V00  .66+  1.2-    260822 291  .35+  .38+    260823 I41  .60-  .64-    
260822 V00  .35+  .47+    260823 V00( .02+  2.8+)   
260822 V00  .23+  .46+    260823 V00  .11+  .86-    

Ephemerides (geocentric):
Date (UTC) HH   RA             Dec           delta  r     elong  mag " sig PA
---- --------  ------------   ------------  ------ ------ -----  --- --------
2026 08 26 01  23 21 08.439   -42 36 35.91  .04456 1.0475 145.1 21.6 2.29 176
2026 08 26 02  23 21 49.353   -42 57 54.08  .04459 1.0474 144.8 21.6 2.32 176
2026 08 26 03  23 22 30.693   -43 19 09.84  .04461 1.0472 144.4 21.6 2.35 176
2026 08 26 04  23 23 12.464   -43 40 23.08  .04464 1.0471 144.0 21.6 2.37 176
2026 08 26 05  23 23 54.672   -44 01 33.67  .04467 1.0469 143.6 21.6 2.40 175
2026 08 26 06  23 24 37.323   -44 22 41.48  .04470 1.0468 143.3 21.6 2.42 175
2026 08 26 07  23 25 20.423   -44 43 46.38  .04473 1.0466 142.9 21.6 2.45 175
2026 08 26 08  23 26 03.979   -45 04 48.25  .04477 1.0465 142.5 21.6 2.48 175
2026 08 26 09  23 26 47.997   -45 25 46.96  .04480 1.0463 142.2 21.6 2.50 175
2026 08 26 10  23 27 32.483   -45 46 42.40  .04484 1.0462 141.8 21.7 2.53 174
2026 08 26 11  23 28 17.443   -46 07 34.44  .04488 1.0460 141.4 21.7 2.55 174
2026 08 26 12  23 29 02.886   -46 28 22.95  .04492 1.0459 141.0 21.7 2.58 174
2026 08 26 13  23 29 48.816   -46 49 07.83  .04497 1.0457 140.7 21.7 2.60 174
2026 08 26 14  23 30 35.242   -47 09 48.94  .04501 1.0455 140.3 21.7 2.63 174
2026 08 26 15  23 31 22.170   -47 30 26.17  .04506 1.0454 139.9 21.7 2.66 173
2026 08 26 16  23 32 09.606   -47 50 59.41  .04511 1.0452 139.6 21.7 2.68 173
2026 08 26 17  23 32 57.559   -48 11 28.54  .04516 1.0451 139.2 21.7 2.71 173
2026 08 26 18  23 33 46.036   -48 31 53.44  .04521 1.0449 138.8 21.7 2.73 173
2026 08 26 19  23 34 35.043   -48 52 14.01  .04527 1.0448 138.5 21.8 2.76 173
2026 08 26 20  23 35 24.589   -49 12 30.12  .04533 1.0446 138.1 21.8 2.78 172
2026 08 26 21  23 36 14.680   -49 32 41.67  .04538 1.0445 137.8 21.8 2.81 172
2026 08 26 22  23 37 05.325   -49 52 48.56  .04544 1.0443 137.4 21.8 2.83 172
2026 08 26 23  23 37 56.531   -50 12 50.66  .04551 1.0442 137.0 21.8 2.85 172
2026 08 27 00  23 38 48.307   -50 32 47.88  .04557 1.0440 136.7 21.8 2.88 172
2026 08 27 01  23 39 40.660   -50 52 40.11  .04564 1.0439 136.3 21.8 2.90 171
2026 08 27 02  23 40 33.599   -51 12 27.25  .04571 1.0437 135.9 21.8 2.93 171
2026 08 27 03  23 41 27.131   -51 32 09.20  .04577 1.0436 135.6 21.9 2.95 171
2026 08 27 04  23 42 21.265   -51 51 45.84  .04585 1.0434 135.2 21.9 2.97 171
2026 08 27 05  23 43 16.010   -52 11 17.10  .04592 1.0433 134.9 21.9 3.00 170
2026 08 27 06  23 44 11.374   -52 30 42.86  .04599 1.0431 134.5 21.9 3.02 170
2026 08 27 07  23 45 07.366   -52 50 03.03  .04607 1.0430 134.2 21.9 3.04 170
2026 08 27 08  23 46 03.994   -53 09 17.52  .04615 1.0428 133.8 21.9 3.06 170
2026 08 27 09  23 47 01.268   -53 28 26.24  .04623 1.0427 133.5 21.9 3.09 170
2026 08 27 10  23 47 59.197   -53 47 29.08  .04631 1.0425 133.1 21.9 3.11 169
2026 08 27 11  23 48 57.789   -54 06 25.97  .04639 1.0424 132.8 22.0 3.13 169
2026 08 27 12  23 49 57.055   -54 25 16.81  .04648 1.0422 132.4 22.0 3.15 169
2026 08 27 13  23 50 57.003   -54 44 01.51  .04657 1.0421 132.1 22.0 3.17 169
2026 08 27 14  23 51 57.644   -55 02 39.99  .04666 1.0419 131.7 22.0 3.19 168
2026 08 27 15  23 52 58.986   -55 21 12.17  .04675 1.0418 131.4 22.0 3.21 168
2026 08 27 16  23 54 01.039   -55 39 37.97  .04684 1.0416 131.0 22.0 3.23 168
2026 08 27 17  23 55 03.813   -55 57 57.29  .04693 1.0415 130.7 22.0 3.25 168
2026 08 27 18  23 56 07.319   -56 16 10.07  .04703 1.0413 130.4 22.1 3.27 167
2026 08 27 19  23 57 11.566   -56 34 16.22  .04712 1.0412 130.0 22.1 3.29 167
2026 08 27 20  23 58 16.565   -56 52 15.66  .04722 1.0410 129.7 22.1 3.31 167
2026 08 27 21  23 59 22.325   -57 10 08.33  .04732 1.0409 129.4 22.1 3.33 167
2026 08 27 22  00 00 28.857   -57 27 54.15  .04742 1.0407 129.0 22.1 3.35 166
2026 08 27 23  00 01 36.172   -57 45 33.04  .04753 1.0406 128.7 22.1 3.37 166
2026 08 28 00  00 02 44.280   -58 03 04.93  .04763 1.0404 128.4 22.1 3.39 166